BARLOW-WX Weather Reports


Display with metric or nautical units.
time (UTC)temp
F
wind
direction
speed
MPH
gust
MPH
rain 1hr
in
rain 24hr
in
rain mn
in
humidity
%
barometer
mb
20260901140118 78 249 5.0 0.0 0.00 0.00 0.00 81 987.5
20260901134620 77 243 4.0 0.0 0.00 0.00 0.00 87 986.7
20260901133118 76 232 6.0 0.0 0.00 0.00 0.00 87 986.7
20260901131617 75 213 6.0 0.0 0.00 0.00 0.00 87 986.7
20260901130126 74 205 7.0 0.0 0.00 0.00 0.00 87 986.7
20260901124642 73 203 5.0 0.0 0.00 0.00 0.00 89 986.2
20260901123119 71 196 5.0 0.0 0.00 0.00 0.00 91 986.1
20260901121617 70 201 4.0 0.0 0.00 0.00 0.00 91 986.1
20260901120126 69 196 3.0 0.0 0.00 0.00 0.00 91 986.1
20260901114618 68 196 3.0 0.0 0.00 0.00 0.00 89 985.2
20260901113123 68 197 3.0 0.0 0.00 0.00 0.00 89 985.7
20260901111618 68 199 4.0 0.0 0.00 0.00 0.00 89 985.7
20260901110122 68 195 4.0 0.0 0.00 0.00 0.00 89 985.7
20260901104621 68 196 4.0 0.0 0.00 0.00 0.00 88 986.1
20260901103123 68 190 4.0 0.0 0.00 0.00 0.00 88 986.1
20260901101625 69 198 5.0 0.0 0.00 0.00 0.00 88 986.1
20260901100126 69 189 5.0 0.0 0.00 0.00 0.00 88 986.1
20260901094617 69 196 4.0 0.0 0.00 0.00 0.00 89 985.0
20260901093123 69 198 5.0 0.0 0.00 0.00 0.00 89 985.4
20260901091625 69 207 4.0 0.0 0.00 0.00 0.00 89 985.3
20260901090123 69 203 5.0 0.0 0.00 0.00 0.00 89 985.3
20260901084617 69 215 5.0 0.0 0.00 0.00 0.00 88 985.0
20260901083122 70 219 5.0 0.0 0.00 0.00 0.00 87 984.5
20260901081624 70 218 6.0 0.0 0.00 0.00 0.00 87 984.5
20260901080119 70 209 5.0 0.0 0.00 0.00 0.00 87 985.0
20260901074623 70 204 6.0 0.0 0.00 0.00 0.00 89 984.7
20260901073122 70 207 5.0 0.0 0.00 0.00 0.00 89 984.7
20260901071617 70 202 4.0 0.0 0.00 0.00 0.00 89 984.7
20260901070117 70 207 4.0 0.0 0.00 0.00 0.00 89 984.7
20260901064624 70 209 5.0 0.0 0.00 0.00 0.00 89 985.0
20260901063111 70 218 5.0 0.0 0.00 0.00 0.00 89 984.9
20260901061618 70 215 4.0 0.0 0.00 0.00 0.00 89 984.9
20260901060123 71 225 4.0 0.0 0.00 0.00 0.00 89 984.9
20260901054622 71 223 4.0 0.0 0.00 0.00 0.00 87 985.3
20260901053123 71 211 4.0 0.0 0.00 0.00 0.00 90 984.9
20260901051617 72 226 6.0 0.0 0.00 0.00 0.00 90 984.9
20260901050128 72 230 6.0 0.0 0.00 0.00 0.00 90 984.9
20260901044622 72 224 6.0 0.0 0.00 0.00 0.00 88 985.2
20260901043117 72 216 6.0 0.0 0.00 0.00 0.00 89 984.9
20260901041621 72 211 6.0 0.0 0.00 0.00 0.00 89 984.9
20260901040126 72 222 6.0 0.0 0.00 0.00 0.00 89 984.9
20260901034621 72 229 4.0 0.0 0.00 0.00 0.00 85 984.9
20260901033121 73 227 5.0 0.0 0.00 0.00 0.00 85 985.0
20260901031621 74 217 8.0 0.0 0.00 0.00 0.00 85 985.1
20260901030122 74 227 7.0 0.0 0.00 0.00 0.00 85 985.1
20260901024621 74 209 8.0 0.0 0.00 0.00 0.00 83 986.2
20260901023121 74 207 8.0 0.0 0.00 0.00 0.00 85 985.8
20260901021619 73 207 8.0 0.0 0.00 0.00 0.00 85 985.7
20260901020126 73 213 7.0 0.0 0.00 0.00 0.00 85 985.7
20260901014620 73 216 6.0 0.0 0.00 0.00 0.00 85 985.6
20260901013118 73 205 6.0 0.0 0.00 0.00 0.00 85 985.6
20260901011620 73 223 5.0 0.0 0.00 0.00 0.00 85 985.5
20260901010123 73 214 5.0 0.0 0.00 0.00 0.00 85 985.5
20260901004620 73 208 6.0 0.0 0.00 0.00 0.00 82 985.5
20260901003119 74 242 3.0 0.0 0.00 0.00 0.00 79 985.1
20260901001620 75 214 5.0 0.0 0.00 0.00 0.00 79 985.2
20260901000117 76 219 6.0 0.0 0.00 0.00 0.00 79 985.2
20260831234622 77 221 6.0 0.0 0.00 0.02 0.02 74 985.0
20260831233121 77 221 4.0 0.0 0.00 0.02 0.02 68 985.0
20260831231622 78 206 9.0 0.0 0.00 0.02 0.02 68 985.1
20260831230124 80 202 10.0 0.0 0.00 0.02 0.02 68 985.1
20260831224621 81 200 10.0 0.0 0.00 0.02 0.02 65 985.5
20260831223123 81 212 10.0 0.0 0.00 0.02 0.02 60 985.9
20260831221618 81 212 11.0 0.0 0.00 0.02 0.02 60 985.9
20260831220122 82 209 12.0 0.0 0.00 0.02 0.02 60 985.9
20260831214621 82 204 11.0 0.0 0.00 0.02 0.02 65 986.4
20260831213119 82 202 11.0 0.0 0.00 0.02 0.02 59 986.0
20260831211620 84 203 13.0 0.0 0.00 0.02 0.02 59 986.2
20260831210121 84 207 11.0 0.0 0.00 0.02 0.02 59 986.2
20260831204619 84 201 11.0 0.0 0.01 0.02 0.02 63 987.3
20260831203119 84 197 11.0 0.0 0.01 0.02 0.02 81 986.9
20260831201620 79 188 7.0 0.0 0.01 0.02 0.02 81 986.6
20260831200121 77 192 7.0 0.0 0.01 0.02 0.02 75 987.2
20260831194621 77 213 9.0 0.0 0.01 0.01 0.01 67 987.4
20260831193120 78 220 10.0 0.0 0.01 0.01 0.01 67 987.4
20260831191620 81 198 4.0 0.0 0.03 0.03 0.03 67 987.5
20260831190122 83 208 10.0 0.0 0.03 0.03 0.03 62 986.9
20260831184618 83 194 11.0 0.0 0.00 0.00 0.00 67 987.4
20260831183119 84 189 11.0 0.0 0.00 0.00 0.00 67 987.5
20260831181619 83 197 11.0 0.0 0.00 0.00 0.00 67 987.5
20260831180120 83 195 11.0 0.0 0.00 0.00 0.00 67 987.5
20260831174619 82 199 12.0 0.0 0.00 0.00 0.00 65 988.2
20260831173119 83 204 11.0 0.0 0.00 0.00 0.00 64 987.1
20260831171619 82 204 12.0 0.0 0.00 0.00 0.00 64 987.1
20260831170120 82 202 11.0 0.0 0.00 0.00 0.00 64 987.1
20260831164619 81 195 10.0 0.0 0.00 0.00 0.00 74 988.9
20260831163332 0 0 0.0 0.0 0.00 0.00 0.00 100
20260831161947 0 0 0.0 0.0 0.00 0.00 0.00 100
20260831160119 80 208 13.0 0.0 0.00 0.00 0.00 62 987.5
20260831154618 79 206 12.0 0.0 0.00 0.00 0.00 74 989.0
20260831153118 78 203 11.0 0.0 0.00 0.00 0.00 74 988.3
20260831151618 79 234 12.0 0.0 0.00 0.00 0.00 74 988.4
20260831150119 78 231 10.0 0.0 0.00 0.00 0.00 74 988.4
20260831144622 78 229 8.0 0.0 0.00 0.00 0.00 78 988.2
20260831143119 77 231 8.0 0.0 0.00 0.00 0.00 73 987.9
20260831141618 75 222 8.0 0.0 0.00 0.00 0.00 73 987.8